Starlink 30121

operational
NORAD ID: 56695 Int'l Des: 2023-067 Owner: SPXS Country: US Constellation: starlink
LEOCIRCULAR

Starlink 30121について

説明を読み込み中...

リアルタイム位置

3D地球を読み込み中...

次回通過

高度履歴

Altitude vs Time

uPlot chart will show altitude changes over time

軌道要素

1 56695U 23067H 25258.42433638 -.00000268 00000-0 -47724-5 0 9991
2 56695 43.0042 146.9524 0000927 272.1825 87.8911 15.02536041129296
Epoch: Sep 15, 2025 • Age: 23 hours

現在のステータス

高度 562.3 km
速度 7.59 km/s
衛星直下点 40.41°N, 126°E
打ち上げ日 May 19, 2023
運用期間 2.3 years
タイプ internet

技術仕様

分類 Payload
質量 730.00 kg
乾燥質量 700.00 kg
総質量 730.00 kg
長さ 0.30 m
直径 4.10 m
スパン 29.00 m
形状 Box + pan
製造者 SPXS
バスタイプ Starlink V2M
フェーズステータス In Orbit
所有者/国 SPXS/US

大規模コンステレーション

Loading constellations...